SCP
0 0 0 0 0 0 0 0 0 0 0 0 0 0 0 0 0 0 0 0 0 0 0 0 0 0 0 0 0 0 0 0 0 0 0 0 0 0 0 0 0 0 0 0
0 0 0 0 0 0 0 0 0 0 0 0 0 0 0 0 0 0 0 0 0 0 0 0 0 0 0 0 0 0 0 0 0 0 0 0 0 0 0 0 0 0 0 0
0 0 0 0 0 0 0 0 0 0 0 0 0 0 0 0 0 0 0 0 0 0 0 0 0 0 0 0 0 0 0 0 0 0 0 0 0 0 0 0 0 0 0 0
0 0 0 0 0 0 0 0 0 0 0 0 0 0 0 0 0 0 0 0 0 0 0 0 0 0 0 0 0 0 0 0 0 0 0 0 0 0 0 0 0 0 0 0
0 0 0 0 0 0 0 0 0 0 0 0 0 0 0 0 0 0 0 0 0 0 0 0 0 0 0 0 0 0 0 0 0 0 0 0 0 0 0 0 0 0 0 0
0 0 0 0 0 0 0 0 0 0 0 0 0 0 0 0 0 0 0 0 0 0 0 0 0 0 0 0 0 0 0 0 0 0 0 0 0 0 0 0 0 0 0 0
0 0 0 0 0 0 0 0 0 0 0 0 0 0 0 0 0 0 0 0 0 0 0 0 0 0 0 0 0 0 0 0 0 0 0 0 0 0 0 0 0 0 0 0
0 0 0 0 0 0 0 0 0 0 0 0 0 0 0 0 0 0 0 0 0 0 0 0 0 0 0 0 0 0 0 0 0 0 0 0 0 0 0 0 0 0 0 0
0 0 0 0 0 0 0 0 0 0 0 0 0 0 0 0 0 0 0 0 0 0 0 0 0 0 0 0 0 0 0 0 0 0 0 0 0 0 0 0 0 0 0 0
0 0 0 0 0 0 0 0 0 0 0 0 0 0 0 0 0 0 0 0 0 0 0 0 0 0 0 0 0 0 0 0 0 0 0 0 0 0 0 0 0 0 0 0
0 0 0 0 0 0 0 0 0 0 0 0 0 0 0 0 0 0 0 0 0 0 0 0 0 0 0 0 0 0 0 0 0 0 0 0 0 0 0 0 0 0 0 0
0 0 0 0 0 0 0 0 0 0 0 0 0 0 0 0 0 0 0 0 0 0 0 0 0 0 0 0 0 0 0 0 0 0 0 0 0 0 0 0 0 0 0 0
0 0 0 0 0 0 0 0 0 0 0 0 0 0 0 0 0 0 0 0 0 0 0 0 0 0 0 0 0 0 0 0 0 0 0 0 0 0 0 0 0 0 0 0
0 0 0 0 0 0 0 0 0 0 0 0 0 0 0 0 0 0 0 0 0 0 0 0 0 0 0 0 0 0 0 0 0 0 0 0 0 0 0 0 0 0 0 0
0 0 0 0 0 0 0 0 0 0 0 0 0 0 0 0 0 0 0 0 0 0 0 0 0 0 0 0 0 0 0 0 0 0 0 0 0 0 0 0 0 0 0 0
0 0 0 0 0 0 0 0 0 0 0 0 0 0 0 0 0 0 0 0 0 0 0 0 0 0 0 0 0 0 0 0 0 0 0 0 0 0 0 0 0 0 0 0
0 0 0 0 0 0 0 0 0 0 0 0 0 0 0 0 0 0 0 0 0 0 0 0 0 0 0 0 0 0 0 0 0 0 0 0 0 0 0 0 0 0 0 0
0 0 0 0 0 0 0 0 0 0 0 0 0 0 0 0 0 0 0 0 0 0 0 0 0 0 0 0 0 0 0 0 0 0 0 0 0 0 0 0 0 0 0 0
0 0 0 0 0 0 0 0 0 0 0 0 0 0 0 0 0 0 0 0 0 0 0 0 0 0 0 0 0 0 0 0 0 0 0 0 0 0 0 0 0 0 0 0
0 0 0 0 0 0 0 0 0 0 0 0 0 0 0 0 0 0 0 0 0 0 0 0 0 0 0 0 0 0 0 0 0 0 0 0 0 0 0 0 0 0 0 0
0 0 0 0 0 0 0 0 0 0 0 0 0 0 0 0 0 0 0 0 0 0 0 0 0 0 0 0 0 0 0 0 0 0 0 0 0 0 0 0 0 0 0 0
0 0 0 0 0 0 0 0 0 0 0 0 0 0 0 0 0 0 0 0 0 0 0 0 0 0 0 0 0 0 0 0 0 0 0 0 0 0 0 0 0 0 0 0
0 0 0 0 0 0 0 0 0 0 0 0 0 0 0 0 0 0 0 0 0 0 0 0 0 0 0 0 0 0 0 0 0 0 0 0 0 0 0 0 0 0 0 0
0 0 0 0 0 0 0 0 0 0 0 0 0 0 0 0 0 0 0 0 0 0 0 0 0 0 0 0 0 0 0 0 0 0 0 0 0 0 0 0 0 0 0 0
0 0 0 0 0 0 0 0 0 0 0 0 0 0 0 0 0 0 0 0 0 0 0 0 0 0 0 0 0 0 0 0 0 0 0 0 0 0 0 0 0 0 0 0
0 0 0 0 0 0 0 0 0 0 0 0 0 0 0 0 0 0 0 0 0 0 0 0 0 0 0 0 0 0 0 0 0 0 0 0 0 0 0 0 0 0 0 0
Wind_Speed
6 8 7 5 2 2 3 5 4 2 2 5 8 7 5 8 8 8 7 5 3 3 4 5 6 6 7 8 9 9 9 9 8 7 7 6 6 6 5 5 6 6 6 6
9 6 4 5 4 3 2 4 2 3 1 5 6 8 5 8 9 8 7 6 4 3 3 4 6 7 8 8 9 10 9 9 8 7 7 6 6 5 5 5 5 6 6 6
8 7 7 6 6 3 0 3 1 1 3 4 6 7 6 7 9 8 8 7 5 3 5 5 6 6 7 8 8 8 8 8 8 8 6 6 5 4 4 6 5 7 7 6
8 6 7 6 3 1 2 2 2 3 5 2 3 4 4 4 7 9 9 8 6 4 3 4 5 6 7 8 7 8 8 8 8 7 7 8 6 6 6 6 6 7 6 6
7 6 5 4 4 1 4 3 2 3 5 5 5 6 2 3 4 5 7 7 6 4 3 4 4 6 6 6 6 6 7 7 7 7 6 6 6 6 5 6 7 7 6 6
8 4 3 4 5 3 6 5 4 4 6 6 1 5 2 2 1 1 2 5 6 5 3 3 3 4 5 5 5 5 6 6 6 6 6 7 8 8 8 8 8 7 5 5
8 6 4 3 5 5 6 6 4 6 5 2 2 5 4 2 1 3 2 3 5 4 4 4 4 5 5 5 5 5 5 5 6 6 6 7 7 8 8 8 7 7 6 6
8 7 4 2 2 2 2 5 5 4 2 1 4 5 1 2 1 3 4 4 4 5 5 4 4 5 5 5 5 5 5 5 5 6 6 6 7 5 5 7 7 7 6 6
5 6 5 3 1 1 3 2 4 5 3 4 3 2 2 3 4 4 5 5 6 6 5 5 4 5 5 5 5 5 5 5 5 5 6 6 6 6 7 7 7 6 6 7
3 6 7 5 5 4 4 2 3 5 4 3 2 3 1 1 1 2 5 6 7 6 6 5 5 5 5 5 5 5 5 5 5 5 5 5 6 6 6 7 7 8 8 7
3 5 7 7 6 4 5 4 4 3 4 5 2 3 3 2 3 4 3 4 6 6 6 6 5 5 5 5 5 5 5 5 5 5 5 5 5 6 6 6 7 7 8 8
1 4 5 4 3 2 3 3 5 5 3 3 4 0 4 2 4 5 6 4 5 6 6 6 6 6 6 5 5 5 5 5 5 5 5 5 5 5 6 6 7 7 8 8
5 5 5 6 6 6 5 4 5 4 3 4 4 1 5 3 5 6 6 6 6 7 7 7 6 6 6 5 5 5 5 5 4 4 5 5 5 6 6 6 7 7 7 8
4 6 6 3 2 6 6 7 8 8 5 4 5 6 4 6 6 5 4 6 7 7 7 7 6 6 5 5 5 5 4 4 4 4 5 5 5 5 6 6 7 8 7 7
6 6 5 2 1 3 5 8 11 11 7 6 5 7 10 8 6 5 4 4 7 8 8 8 7 6 6 5 5 5 4 4 4 4 5 4 5 5 5 6 6 7 7 7
6 5 5 6 4 5 7 9 10 11 8 9 10 9 4 4 4 5 4 5 7 8 8 8 8 7 6 5 5 4 3 3 3 4 4 3 4 4 5 6 6 7 7 7
7 7 6 6 5 5 9 11 12 7 8 7 5 3 4 6 5 5 4 4 6 7 7 8 8 7 6 5 5 4 3 3 4 4 3 3 4 4 5 5 6 6 7 7
7 7 4 4 6 8 3 4 7 7 6 8 7 7 6 7 6 6 6 6 6 6 6 7 7 7 6 5 5 4 3 4 4 4 3 3 3 4 4 5 6 6 6 6
4 6 5 5 6 5 4 6 7 7 5 5 5 4 3 3 4 2 1 3 5 5 5 5 6 6 6 5 5 5 5 4 4 4 4 4 4 4 5 5 6 6 6 7
3 6 6 6 6 6 5 7 5 5 6 4 4 2 1 3 2 3 4 3 3 3 4 5 5 6 6 6 5 6 6 5 5 5 5 4 5 5 5 5 6 6 6 6
9 7 9 8 7 5 6 6 6 7 5 5 3 2 2 2 4 5 5 4 3 3 3 4 6 6 6 6 6 8 7 6 5 5 5 6 6 6 6 6 5 6 6 6
10 8 8 7 8 5 8 9 7 2 5 3 2 2 2 3 4 4 4 4 4 3 2 4 5 6 6 6 7 9 9 7 5 6 7 8 8 7 6 6 6 6 6 6
8 7 4 6 2 5 4 2 2 2 3 2 2 1 2 2 2 3 4 4 4 3 2 3 5 6 6 6 8 10 9 6 6 7 8 9 9 8 8 8 8 7 6 6
7 4 6 6 6 5 3 3 2 3 4 2 2 1 1 0 2 3 4 5 5 6 5 3 3 5 5 5 6 8 9 7 8 9 9 9 9 9 9 7 7 7 6 6
6 9 7 7 5 6 6 6 4 3 4 4 4 3 3 3 4 4 5 6 6 6 6 5 4 5 6 6 6 6 7 8 9 10 10 9 9 9 8 8 7 8 8 6
9 10 10 8 10 9 8 9 8 7 6 6 7 7 6 5 6 6 7 7 7 8 8 7 8 8 8 8 8 8 8 8 9 9 9 8 7 7 8 8 8 10 11 8
Wind_Direction
170 195 192 181 209 320 293 277 285 85 143 238 252 261 216 199 216 227 230 241 274 328 357 5 357 351 350 354 349 352 353 358 353 349 344 344 343 336 341 339 340 323 313 304
175 172 111 110 130 159 222 269 255 144 150 259 269 266 241 213 225 236 245 248 261 299 328 349 350 356 354 352 346 352 359 357 356 353 342 336 334 329 340 336 337 337 331 319
190 118 137 150 152 163 157 301 291 198 173 217 277 254 208 210 224 230 241 253 261 285 318 341 348 353 347 350 351 350 355 351 356 352 347 340 344 336 347 348 345 342 336 326
104 124 155 155 126 277 140 84 175 201 240 212 274 292 162 193 221 229 232 235 244 255 292 321 334 342 343 350 346 346 353 354 358 350 356 352 350 351 347 340 339 337 342 339
114 137 157 133 87 7 89 115 187 241 263 263 215 267 156 166 241 236 228 227 233 242 271 303 321 330 335 339 340 341 348 352 357 354 354 344 353 347 344 343 344 342 347 345
103 97 54 89 90 89 137 165 167 213 243 247 192 267 267 159 315 340 205 216 220 229 252 280 303 312 326 333 334 337 343 351 353 348 351 356 352 346 347 348 347 343 346 345
133 121 105 136 150 151 208 237 226 209 212 204 117 258 275 54 311 277 262 218 210 222 249 270 295 311 326 331 329 328 337 344 348 347 349 353 351 344 346 346 346 341 341 344
172 154 131 153 268 197 213 266 288 297 297 153 190 248 41 88 268 247 237 231 215 223 244 263 285 297 306 314 313 312 325 333 337 340 345 346 346 340 345 343 338 338 337 338
191 128 113 91 83 251 194 217 337 292 284 266 206 235 239 167 220 222 227 227 228 229 236 253 273 292 301 305 302 294 300 312 325 331 334 337 344 346 343 338 339 340 340 336
178 143 147 138 151 66 348 129 212 253 276 267 222 236 226 179 289 231 232 233 233 231 238 247 264 281 291 297 293 284 280 292 306 315 325 330 335 340 335 332 343 342 341 339
213 177 154 184 219 191 168 190 230 252 278 288 299 101 79 320 320 306 284 246 232 228 235 246 265 283 289 287 282 277 274 280 293 303 315 320 333 333 330 335 340 335 336 338
199 244 182 161 98 349 249 237 229 261 224 270 292 32 120 256 287 284 278 255 230 226 231 243 262 276 279 285 289 286 282 280 286 294 301 312 326 325 329 338 337 334 338 339
165 219 193 170 175 186 206 200 222 252 251 237 258 102 128 249 279 274 262 249 223 218 224 234 248 263 274 283 289 287 287 288 283 282 293 306 319 326 333 335 337 332 336 334
229 229 251 289 81 159 185 187 202 218 239 243 247 290 309 313 313 301 263 239 225 218 221 232 243 253 265 277 284 289 293 293 282 275 284 302 316 324 328 337 334 336 336 334
235 238 223 225 122 202 215 197 199 220 248 270 292 294 304 323 324 312 288 242 223 222 222 227 237 249 257 268 279 290 298 293 281 280 286 303 313 319 325 329 330 330 331 333
222 230 204 201 201 228 239 224 212 227 245 256 276 285 294 316 296 285 269 240 230 226 224 226 232 244 253 261 272 280 284 289 278 281 286 298 300 317 322 330 330 330 331 335
194 210 215 207 176 225 239 216 202 206 215 233 253 312 336 307 308 305 300 258 246 236 227 225 231 240 253 261 275 287 308 297 281 286 288 291 296 310 320 327 325 327 327 333
200 203 219 219 195 230 100 105 180 203 218 224 256 289 301 300 298 285 276 267 258 240 227 224 226 230 239 246 251 267 268 266 272 280 283 284 285 294 304 311 317 321 325 327
246 208 219 226 225 237 175 174 181 196 184 194 230 269 309 315 263 176 47 278 265 254 235 228 228 232 236 243 252 254 255 260 269 277 274 270 271 282 295 306 315 323 322 322
201 234 234 223 235 231 153 136 169 207 181 162 209 257 320 273 265 67 32 337 283 253 237 230 224 229 237 239 241 253 264 264 265 265 260 258 261 270 280 293 305 313 312 312
189 204 224 229 241 245 123 139 175 208 149 139 190 242 253 276 354 4 346 335 318 273 246 235 232 235 238 239 235 248 260 263 263 254 252 249 250 257 267 279 285 292 301 306
195 195 204 209 224 212 135 170 201 80 97 149 194 236 272 300 328 338 341 340 331 308 268 246 243 244 241 237 240 253 263 270 261 245 245 247 247 250 253 257 269 279 288 293
214 216 207 215 219 78 159 206 34 322 244 221 235 257 268 275 341 4 9 8 2 346 320 277 261 264 258 242 243 258 269 271 257 248 246 247 248 245 248 254 259 266 269 279
191 192 214 221 215 190 183 202 218 238 242 244 242 244 235 177 42 37 34 26 20 14 4 334 293 281 282 276 260 266 278 276 264 259 259 255 252 249 242 241 252 259 266 271
181 182 208 223 180 173 201 201 189 178 169 150 129 107 97 101 75 57 49 37 26 20 15 6 348 333 325 320 306 299 294 284 272 268 265 264 258 256 257 249 243 251 254 259
187 192 201 220 193 189 177 164 168 163 151 141 130 110 88 81 78 69 58 42 34 29 25 21 14 4 356 352 349 345 330 305 283 274 271 266 261 255 254 257 249 228 237 236